TimeCDT,TemperatureF,Dew PointF,Humidity,Sea Level PressureIn,VisibilityMPH,Wind Direction,Wind SpeedMPH,Gust SpeedMPH,PrecipitationIn,Events,Conditions,WindDirDegrees,DateUTC
12:15 AM,76.3,68.5,77,29.94,10.0,Calm,Calm,-,N/A,,Clear,0,2013-08-30 05:15:00
12:35 AM,75.9,68.4,77,29.94,10.0,Calm,Calm,-,N/A,,Clear,0,2013-08-30 05:35:00
12:55 AM,74.8,68.2,80,29.94,10.0,Calm,Calm,-,N/A,,Clear,0,2013-08-30 05:55:00
1:15 AM,75.2,68.2,79,29.94,10.0,Calm,Calm,-,N/A,,Clear,0,2013-08-30 06:15:00
1:35 AM,75.2,68.0,78,29.94,10.0,Calm,Calm,-,N/A,,Clear,0,2013-08-30 06:35:00
1:55 AM,75.9,67.6,75,29.94,10.0,Calm,Calm,-,N/A,,Clear,0,2013-08-30 06:55:00
2:15 AM,75.4,67.5,76,29.93,10.0,Calm,Calm,-,N/A,,Clear,0,2013-08-30 07:15:00
2:35 AM,75.0,67.1,76,29.93,10.0,Calm,Calm,-,N/A,,Clear,0,2013-08-30 07:35:00
2:55 AM,73.6,66.7,79,29.93,10.0,Calm,Calm,-,N/A,,Clear,0,2013-08-30 07:55:00
3:15 AM,70.5,66.6,87,29.93,10.0,Calm,Calm,-,N/A,,Clear,0,2013-08-30 08:15:00
3:35 AM,70.7,66.0,85,29.93,10.0,Calm,Calm,-,N/A,,Clear,0,2013-08-30 08:35:00
3:55 AM,71.2,66.7,86,29.94,10.0,NW,4.6,-,N/A,,Clear,310,2013-08-30 08:55:00
4:15 AM,71.8,66.2,83,29.92,10.0,Calm,Calm,-,N/A,,Clear,0,2013-08-30 09:15:00
4:35 AM,69.8,65.7,87,29.93,10.0,Calm,Calm,-,N/A,,Clear,0,2013-08-30 09:35:00
4:55 AM,69.4,65.7,88,29.92,10.0,Calm,Calm,-,N/A,,Clear,0,2013-08-30 09:55:00
5:15 AM,68.2,64.8,89,29.92,10.0,Calm,Calm,-,N/A,,Clear,0,2013-08-30 10:15:00
5:35 AM,67.1,65.1,93,29.93,7.0,Calm,Calm,-,N/A,,Clear,0,2013-08-30 10:35:00
5:55 AM,67.6,65.5,93,29.92,7.0,Calm,Calm,-,N/A,,Clear,0,2013-08-30 10:55:00
6:15 AM,67.6,65.3,92,29.92,7.0,Calm,Calm,-,N/A,,Clear,0,2013-08-30 11:15:00
6:35 AM,66.7,64.4,92,29.93,7.0,NW,3.5,-,N/A,,Clear,320,2013-08-30 11:35:00
6:55 AM,66.7,64.8,93,29.94,5.0,NNW,4.6,-,N/A,,Clear,330,2013-08-30 11:55:00
7:15 AM,68.2,65.8,92,29.94,7.0,WNW,3.5,-,N/A,,Clear,300,2013-08-30 12:15:00
7:35 AM,69.6,66.2,89,29.95,7.0,NW,4.6,-,N/A,,Clear,310,2013-08-30 12:35:00
7:55 AM,70.9,67.3,88,29.95,4.0,NNW,6.9,-,N/A,,Clear,330,2013-08-30 12:55:00
9:15 AM,77.5,71.4,81,29.96,10.0,North,11.5,-,N/A,,Clear,350,2013-08-30 14:15:00
9:35 AM,78.8,71.6,78,29.96,10.0,NNW,10.4,-,N/A,,Clear,340,2013-08-30 14:35:00
9:55 AM,80.1,71.8,76,29.97,10.0,North,10.4,16.1,N/A,,Clear,350,2013-08-30 14:55:00
10:15 AM,81.3,72.0,73,29.97,10.0,North,10.4,-,N/A,,Clear,350,2013-08-30 15:15:00
10:35 AM,82.8,72.5,71,29.97,10.0,North,11.5,16.1,N/A,,Clear,350,2013-08-30 15:35:00
10:55 AM,82.8,72.5,71,29.97,10.0,North,9.2,-,N/A,,Clear,350,2013-08-30 15:55:00
11:15 AM,84.0,72.9,69,29.97,10.0,North,11.5,-,N/A,,Clear,350,2013-08-30 16:15:00
11:35 AM,84.9,73.0,67,29.98,10.0,North,9.2,-,N/A,,Clear,350,2013-08-30 16:35:00
11:55 AM,85.5,73.2,67,29.98,10.0,North,11.5,-,N/A,,Clear,360,2013-08-30 16:55:00
12:15 PM,86.2,73.0,65,29.98,10.0,North,9.2,16.1,N/A,,Clear,10,2013-08-30 17:15:00
12:35 PM,86.2,72.7,64,29.98,10.0,North,10.4,16.1,N/A,,Clear,10,2013-08-30 17:35:00
12:55 PM,86.9,72.3,62,29.97,10.0,NNE,9.2,-,N/A,,Clear,30,2013-08-30 17:55:00
1:15 PM,87.8,71.4,58,29.97,10.0,NNE,10.4,16.1,N/A,,Clear,30,2013-08-30 18:15:00
1:35 PM,88.2,72.0,59,29.97,10.0,NNE,10.4,-,N/A,,Clear,30,2013-08-30 18:35:00
1:55 PM,88.2,70.3,55,29.97,10.0,NNE,12.7,-,N/A,,Clear,30,2013-08-30 18:55:00
2:15 PM,88.5,70.9,56,29.96,10.0,NNE,9.2,17.3,N/A,,Clear,30,2013-08-30 19:15:00
2:35 PM,88.3,70.5,55,29.96,10.0,North,8.1,-,N/A,,Clear,10,2013-08-30 19:35:00
2:55 PM,88.7,70.2,54,29.96,10.0,North,10.4,17.3,N/A,,Clear,10,2013-08-30 19:55:00
3:15 PM,88.2,70.7,56,29.96,10.0,North,9.2,16.1,N/A,,Clear,360,2013-08-30 20:15:00
3:35 PM,88.5,70.0,54,29.95,10.0,North,6.9,-,N/A,,Clear,10,2013-08-30 20:35:00
3:55 PM,88.7,67.6,50,29.95,10.0,NNE,9.2,-,N/A,,Clear,20,2013-08-30 20:55:00
4:15 PM,89.2,65.1,45,29.94,10.0,NNE,9.2,-,N/A,,Clear,20,2013-08-30 21:15:00
4:35 PM,89.1,64.2,44,29.94,10.0,ENE,6.9,-,N/A,,Clear,60,2013-08-30 21:35:00
4:55 PM,88.5,67.3,49,29.94,10.0,NNE,5.8,-,N/A,,Clear,20,2013-08-30 21:55:00
5:15 PM,88.0,68.2,52,29.93,10.0,NNE,4.6,-,N/A,,Clear,20,2013-08-30 22:15:00
5:35 PM,87.8,68.2,52,29.93,10.0,NE,6.9,-,N/A,,Clear,50,2013-08-30 22:35:00
5:55 PM,87.1,66.7,51,29.93,10.0,ENE,6.9,-,N/A,,Clear,60,2013-08-30 22:55:00
6:15 PM,86.4,64.8,48,29.92,10.0,ENE,6.9,-,N/A,,Clear,70,2013-08-30 23:15:00
6:35 PM,85.8,65.5,50,29.93,10.0,ENE,6.9,-,N/A,,Clear,60,2013-08-30 23:35:00
6:55 PM,84.9,66.4,54,29.92,10.0,NE,4.6,-,N/A,,Clear,40,2013-08-30 23:55:00
7:15 PM,83.7,67.1,57,29.92,10.0,NNE,4.6,-,N/A,,Clear,30,2013-08-31 00:15:00
7:35 PM,82.6,67.6,60,29.92,10.0,NNE,3.5,-,N/A,,Clear,30,2013-08-31 00:35:00
7:55 PM,80.1,68.5,68,29.92,10.0,Calm,Calm,-,N/A,,Clear,0,2013-08-31 00:55:00
8:15 PM,77.4,68.4,74,29.92,10.0,NNE,4.6,-,N/A,,Clear,30,2013-08-31 01:15:00
8:35 PM,76.1,68.0,76,29.93,10.0,NNE,4.6,-,N/A,,Clear,30,2013-08-31 01:35:00
8:55 PM,75.9,67.3,74,29.93,10.0,NNE,4.6,-,N/A,,Clear,30,2013-08-31 01:55:00
9:15 PM,73.4,67.1,81,29.93,10.0,NNE,5.8,-,N/A,,Clear,20,2013-08-31 02:15:00
9:35 PM,77.4,65.8,67,29.93,10.0,NE,6.9,-,N/A,,Clear,40,2013-08-31 02:35:00
9:55 PM,72.1,67.6,86,29.93,10.0,Calm,Calm,-,N/A,,Clear,0,2013-08-31 02:55:00
10:15 PM,72.0,67.5,86,29.94,10.0,Calm,Calm,-,N/A,,Clear,0,2013-08-31 03:15:00
10:35 PM,72.3,67.5,85,29.95,10.0,Calm,Calm,-,N/A,,Clear,0,2013-08-31 03:35:00
10:55 PM,72.5,67.5,84,29.93,10.0,Calm,Calm,-,N/A,,Clear,0,2013-08-31 03:55:00
11:15 PM,72.0,67.1,85,29.93,10.0,Calm,Calm,-,N/A,,Clear,0,2013-08-31 04:15:00
11:35 PM,71.1,67.1,87,29.92,10.0,Calm,Calm,-,N/A,,Clear,0,2013-08-31 04:35:00
11:55 PM,70.7,67.1,88,29.92,10.0,Calm,Calm,-,N/A,,Clear,0,2013-08-31 04:55:00